Flag for U.S.A. Weather past 2 weeks in Warren, Michigan, U.S.A.

Now
43 °F

Mostly cloudy.


Feels Like: 36 °F
Forecast: 36 / 47 °F
Wind: 14 mph from Northwest

Location: Detroit City Airport

Current Time: Mar 26, 2015 at 7:48:44 PM

Latest Report: Mar 26, 2015 at 6:53 PM


Visibility: 10 mi

Pressure: 29.88 "Hg

Humidity: 45%

Dew point: 23 °F

Location of WarrenLocation

Historic Weather in Warren — Graph

°F

Warren temperature yesterday

Maximum temperature yesterday: 54 °F (at 4:53 PM)
Minimum temperature yesterday: 30 °F (at 1:53 AM)
Average temperature yesterday: 43 °F

Past Weeks' High & Low Weather Summary

 TemperatureHumidityPressure
High62 °F (Mar 16, 2:53 PM)93% (Mar 14, 6:53 AM)30.65 "Hg (Mar 14, 6:53 AM)
Low20 °F (Mar 24, 1:53 AM)22% (Mar 17, 1:53 PM)29.70 "Hg (Mar 17, 12:53 AM)
Average39 °F56%30.17 "Hg
* Reported Mar 11 5:53 PM — Mar 26 5:53 PM, Warren, Weather by CustomWeather, © 2015

Note: Actual official high and low records may vary slightly from our data, if they occured in-between our weather recording intervals... More about our weather records

Advertising

Warren weather history for previous 24 hours

 ConditionsComfort  
Time TempWeatherWind HumidityBarometerVisibility
5:53 PM
Thu, Mar 26
44 °FOvercast.9 mph45%29.86 "Hg10 mi
4:53 PM45 °FOvercast.8 mph45%29.83 "Hg10 mi
3:53 PM45 °FOvercast.10 mph48%29.83 "Hg10 mi
2:53 PM44 °FOvercast.7 mph51%29.84 "Hg10 mi
1:53 PM44 °FOvercast.8 mph53%29.85 "Hg10 mi
12:53 PM43 °FMore clouds than sun.7 mph60%29.86 "Hg10 mi
11:53 AM42 °FMore clouds than sun.6 mph65%29.87 "Hg10 mi
10:53 AM40 °FMostly cloudy.6 mph83%29.89 "Hg4 mi
9:53 AM39 °FLight rain. Mostly cloudy.6 mph82%29.89 "Hg3 mi
8:53 AM39 °FLight rain. Mostly cloudy.5 mph82%29.90 "Hg4 mi
7:53 AM40 °FLight rain. Overcast.3 mph77%29.91 "Hg9 mi
6:53 AM41 °FOvercast.3 mph70%29.91 "Hg9 mi
5:53 AM41 °FOvercast.3 mph70%29.91 "Hg10 mi
4:53 AM42 °FMostly cloudy.No wind68%29.90 "Hg10 mi
3:53 AM42 °FOvercast.6 mph68%29.95 "Hg10 mi
2:53 AM42 °FOvercast.6 mph68%29.99 "Hg9 mi
1:53 AM43 °FMostly cloudy.7 mph68%30.00 "Hg8 mi
12:53 AM43 °FOvercast.5 mph74%30.00 "Hg7 mi
11:53 PM
Wed, Mar 25
45 °FPartly cloudy.7 mph68%29.98 "Hg8 mi
10:53 PM48 °FOvercast.12 mph71%29.98 "Hg9 mi
9:53 PM48 °FPassing clouds.9 mph71%29.97 "Hg9 mi
8:53 PM49 °FClear.15 mph66%29.96 "Hg10 mi
7:53 PM50 °FSunny.16 mph63%29.96 "Hg9 mi
Weather by CustomWeather, © 2015

See weather overviewHow to use our weather pages